User: anonymous
Location: Caltech
(34.1382°N, 118.1253°W)
Time: 06:34:42
(UTC-07:00)
Language:

OAO 2 Rocket - Orbit

View from above orbital plane
View from above orbital plane
View from above satellite
View from above satellite

Ground track
Ground track

The orbit data is extracted from the following two-line orbital elements,

1 03598U 68110B   14292.79964013  .00000790  00000-0  18719-3 0  7418
2 03598 034.9949 060.9657 0050465 270.1649 248.1475 14.53742433425005
Epoch (UTC): 19 October 2014 19:11:28
Eccentricity: 0.0050465
inclination: 34.9949°
perigee height: 677 km
apogee height: 749 km
right ascension of ascending node: 60.9657°
argument of perigee: 270.1649°
revolutions per day: 14.53742433
mean anomaly at epoch: 248.1475°
orbit number at epoch: 42500

The dashed part of the orbit path shows where the satellite is in the earth's shadow,  

DLR